SCP
0 0 0 0 0 0 0 0 0 0 0 0 0 0 0 0 0 0 0 0 0 0 0 0 0 0 0 0 0 0 0 0 0 0 0 0 0 0 0 0 0 0 0
0 0 0 0 0 0 0 0 0 0 0 0 0 0 0 0 0 0 0 0 0 0 0 0 0 0 0 0 0 0 0 0 0 0 0 0 0 0 0 0 0 0 0
0 0 0 0 0 0 0 0 0 0 0 0 0 0 0 0 0 0 0 0 0 0 0 0 0 0 0 0 0 0 0 0 0 0 0 0 0 0 0 0 0 0 0
0 0 0 0 0 0 0 0 0 0 0 0 0 0 0 0 0 0 0 0 0 0 0 0 0 0 0 0 0 0 0 0 0 0 0 0 0 0 0 0 0 0 0
0 0 0 0 0 0 0 0 0 0 0 0 0 0 0 0 0 0 0 0 0 0 0 0 0 0 0 0 0 0 0 0 0 0 0 0 0 0 0 0 0 0 0
0 0 0 0 0 0 0 0 0 0 0 0 0 0 0 0 0 0 0 0 0 0 0 0 0 0 0 0 0 0 0 0 0 0 0 0 0 0 0 0 0 0 0
0 0 0 0 0 0 0 0 0 0 0 0 0 0 0 0 0 0 0 0 0 0 0 0 0 0 0 0 0 0 0 0 0 0 0 0 0 0 0 0 0 0 0
0 0 0 0 0 0 0 0 0 0 0 0 0 0 0 0 0 0 0 0 0 0 0 0 0 0 0 0 0 0 0 0 0 0 0 0 0 0 0 0 0 0 0
0 0 0 0 0 0 0 0 0 0 0 0 0 0 0 0 0 0 0 0 0 0 0 0 0 0 0 0 0 0 0 0 0 0 0 0 0 0 0 0 0 0 0
0 0 0 0 0 0 0 0 0 0 0 0 0 0 0 0 0 0 0 0 0 0 0 0 0 0 0 0 0 0 0 0 0 0 0 0 0 0 0 0 0 0 0
0 0 0 0 0 0 0 0 0 0 0 0 0 0 0 0 0 0 0 0 0 0 0 0 0 0 0 0 0 0 0 0 0 0 0 0 0 0 0 0 0 0 0
0 0 0 0 0 0 0 0 0 0 0 0 0 0 0 0 0 0 0 0 0 0 0 0 0 0 0 0 0 0 0 0 0 0 0 0 0 0 0 0 0 0 0
0 0 0 0 0 0 0 0 0 0 0 0 0 0 0 0 0 0 0 0 0 0 0 0 0 0 0 0 0 0 0 0 0 0 0 0 0 0 0 0 0 0 0
0 0 0 0 0 0 0 0 0 0 0 0 0 0 0 0 0 0 0 0 0 0 0 0 0 0 0 0 0 0 0 0 0 0 0 0 0 0 0 0 0 0 0
0 0 0 0 0 0 0 0 0 0 0 0 0 0 0 0 0 0 0 0 0 0 0 0 0 0 0 0 0 0 0 0 0 0 0 0 0 0 0 0 0 0 0
0 0 0 0 0 0 0 0 0 0 0 0 0 0 0 0 0 0 0 0 0 0 0 0 0 0 0 0 0 0 0 0 0 0 0 0 0 0 0 0 0 0 0
0 0 0 0 0 0 0 0 0 0 0 0 0 0 0 0 0 0 0 0 0 0 0 0 0 0 0 0 0 0 0 0 0 0 0 0 0 0 0 0 0 0 0
0 0 0 0 0 0 0 0 0 0 0 0 0 0 0 0 0 0 0 0 0 0 0 0 0 0 0 0 0 0 0 0 0 0 0 0 0 0 0 0 0 0 0
0 0 0 0 0 0 0 0 0 0 0 0 0 0 0 0 0 0 0 0 0 0 0 0 0 0 0 0 0 0 0 0 0 0 0 0 0 0 0 0 0 0 0
0 0 0 0 0 0 0 0 0 0 0 0 0 0 0 0 0 0 0 0 0 0 0 0 0 0 0 0 0 0 0 0 0 0 0 0 0 0 0 0 0 0 0
0 0 0 0 0 0 0 0 0 0 0 0 0 0 0 0 0 0 0 0 0 0 0 0 0 0 0 0 0 0 0 0 0 0 0 0 0 0 0 0 0 0 0
0 0 0 0 0 0 0 0 0 0 0 0 0 0 0 0 0 0 0 0 0 0 0 0 0 0 0 0 0 0 0 0 0 0 0 0 0 0 0 0 0 0 0
0 0 0 0 0 0 0 0 0 0 0 0 0 0 0 0 0 0 0 0 0 0 0 0 0 0 0 0 0 0 0 0 0 0 0 0 0 0 0 0 0 0 0
0 0 0 0 0 0 0 0 0 0 0 0 0 0 0 0 0 0 0 0 0 0 0 0 0 0 0 0 0 0 0 0 0 0 0 0 0 0 0 0 0 0 0
0 0 0 0 0 0 0 0 0 0 0 0 0 0 0 0 0 0 0 0 0 0 0 0 0 0 0 0 0 0 0 0 0 0 0 0 0 0 0 0 0 0 0
0 0 0 0 0 0 0 0 0 0 0 0 0 0 0 0 0 0 0 0 0 0 0 0 0 0 0 0 0 0 0 0 0 0 0 0 0 0 0 0 0 0 0
Wind_Speed
2 2 3 4 5 6 7 8 8 9 8 9 9 10 10 10 11 11 11 11 10 10 10 10 9 9 9 9 9 8 8 8 8 8 8 8 8 7 8 7 7 4 7
0 1 3 4 6 7 7 8 8 8 8 8 9 9 9 10 10 10 10 10 10 10 10 9 8 8 9 9 9 9 8 8 8 9 8 7 7 8 8 7 7 4 6
1 2 2 4 6 7 7 7 8 8 8 8 8 8 9 9 9 9 10 10 9 9 9 9 8 8 9 9 9 9 8 8 9 9 8 5 4 7 7 7 7 7 6
2 2 2 5 6 6 7 7 8 8 9 8 8 8 9 9 9 9 9 9 9 9 9 9 8 8 8 9 9 9 9 8 9 9 5 4 4 6 7 7 7 6 6
2 2 2 5 6 6 7 7 8 8 8 8 8 8 8 8 8 9 9 9 8 8 8 8 7 7 8 8 9 9 9 10 10 8 5 4 3 6 7 7 6 6 7
2 2 1 5 6 6 6 7 7 7 8 7 7 7 7 7 7 8 8 8 8 8 8 8 8 8 8 8 9 9 10 10 8 5 4 3 3 6 7 6 6 6 7
2 3 2 4 5 6 6 6 6 7 7 7 7 7 7 7 7 7 7 8 8 8 8 8 7 8 8 8 9 9 9 9 6 4 3 3 3 6 6 6 6 7 7
2 3 3 3 4 5 5 6 7 7 7 7 7 7 7 7 7 7 7 8 8 8 8 7 7 8 8 8 9 9 9 8 6 5 3 3 5 6 6 6 6 7 7
3 3 4 4 4 4 4 5 6 6 7 7 7 7 7 6 6 6 7 7 7 7 7 7 7 8 8 9 9 10 10 10 5 3 4 2 5 6 6 7 7 7 7
2 3 3 4 4 4 3 4 5 5 5 6 6 7 7 7 7 7 6 6 7 7 7 7 8 8 8 9 10 10 10 8 4 4 2 3 6 7 7 7 7 7 7
1 1 2 2 3 3 3 4 5 5 5 5 5 7 7 5 4 4 5 6 6 7 7 8 8 8 9 9 10 10 7 3 4 3 2 5 7 7 7 7 7 7 7
1 1 1 1 2 2 2 3 3 3 3 3 3 4 3 3 3 4 6 7 7 7 7 8 9 8 7 4 6 7 3 4 3 3 3 7 7 7 7 7 7 6 6
1 1 0 0 1 1 1 2 1 2 2 3 3 3 3 3 3 3 3 4 5 6 4 6 6 4 4 3 3 3 4 3 3 3 4 7 7 7 8 7 7 7 7
1 1 0 1 0 0 1 1 1 1 1 1 2 2 2 2 2 2 2 2 3 2 3 3 3 4 4 5 5 5 5 3 3 3 4 9 8 8 8 8 8 8 8
2 2 1 1 1 1 1 0 1 1 1 1 1 2 2 2 2 2 2 2 2 2 2 3 3 4 4 5 5 5 5 5 4 4 4 9 9 9 9 9 9 9 9
3 2 1 2 2 2 1 1 0 1 1 1 1 1 2 2 2 2 2 2 2 2 2 3 4 4 4 4 5 5 5 4 5 5 4 6 10 11 11 11 11 10 10
3 2 2 2 2 2 2 1 1 1 1 1 1 1 2 2 2 2 2 2 2 2 3 3 4 4 4 4 5 5 4 4 4 5 5 4 5 9 12 11 11 11 11
3 3 3 2 3 2 2 2 1 1 2 1 1 2 2 2 3 3 2 2 2 3 3 3 3 4 4 4 4 4 4 4 5 5 5 5 4 5 8 12 12 11 11
4 4 3 2 3 3 3 3 2 2 2 1 1 1 2 2 3 3 2 2 3 3 3 3 3 3 4 4 4 4 4 4 4 5 5 5 5 5 5 8 12 13 12
3 3 3 3 3 3 3 3 2 3 2 2 2 1 2 2 3 3 3 3 3 3 3 3 4 3 3 3 5 5 4 4 4 4 4 4 5 6 5 6 6 8 12
3 3 3 3 3 3 2 2 2 1 1 1 1 2 2 2 3 3 3 2 3 3 3 4 4 4 2 2 3 3 3 4 4 4 3 4 5 5 5 5 4 4 5
3 3 3 3 3 2 2 2 2 2 1 1 1 2 2 2 2 3 3 2 3 3 4 3 3 3 1 1 2 2 2 3 4 4 4 4 4 4 5 5 5 5 4
4 4 4 4 3 2 3 3 3 3 2 2 2 1 1 1 2 3 3 3 3 3 3 3 3 4 2 1 1 3 3 1 1 3 4 4 4 3 3 3 5 5 5
5 4 3 4 3 3 3 3 3 2 1 1 0 0 1 1 1 2 3 3 3 2 3 3 3 2 3 2 1 1 2 3 3 1 2 3 3 3 4 4 4 4 5
4 4 4 3 3 3 3 3 3 2 1 1 1 1 1 1 1 1 2 2 2 2 3 3 3 3 2 2 2 1 2 2 2 3 0 2 3 3 3 3 3 3 4
4 4 4 4 3 3 3 3 4 3 2 2 1 1 1 1 1 1 1 2 2 2 2 2 3 3 2 2 2 2 2 2 2 3 2 0 1 2 2 2 3 3 3
Wind_Direction
322 318 15 73 88 89 93 94 95 95 96 98 98 100 103 103 103 100 97 95 95 93 92 90 91 92 92 91 91 88 86 84 83 85 87 86 84 86 86 83 77 70 78
305 353 54 75 87 92 98 99 98 96 96 96 93 93 98 99 100 101 99 97 95 92 90 88 88 92 94 94 91 87 85 80 79 78 76 73 77 82 84 84 82 77 76
64 36 70 86 89 93 99 99 96 95 97 99 99 98 99 100 99 103 103 100 97 95 90 84 84 88 90 92 90 88 87 84 78 73 63 50 61 80 80 78 78 76 72
78 54 76 94 92 95 100 100 96 93 94 95 98 102 101 101 100 100 101 102 100 97 93 87 82 85 86 88 87 85 84 81 77 70 54 41 44 71 72 72 73 68 66
64 49 90 104 98 94 96 97 97 95 96 99 99 100 100 102 101 100 101 102 100 97 96 93 84 82 84 84 82 78 76 75 73 61 51 42 38 65 70 68 67 65 63
52 28 65 105 104 99 99 100 99 96 96 98 95 97 100 102 103 101 102 99 96 93 93 90 84 79 83 82 79 78 77 77 67 53 48 42 41 64 69 69 70 68 63
44 20 34 100 103 105 106 105 102 95 92 92 95 96 97 96 99 100 97 93 90 87 84 81 77 78 81 82 79 79 81 80 70 52 44 39 55 69 70 69 69 67 60
61 29 21 77 100 106 113 109 102 95 88 85 88 90 95 95 95 94 94 90 86 84 80 76 75 81 81 80 79 78 78 74 66 53 43 34 62 68 69 66 66 66 62
53 40 21 22 39 65 94 101 98 90 84 79 81 84 86 86 86 86 90 91 89 86 81 77 76 76 77 78 80 80 76 71 59 43 44 34 61 64 66 64 62 60 60
50 34 22 28 31 32 41 68 81 81 79 77 71 72 68 61 61 69 73 79 82 79 78 77 71 72 72 77 78 75 73 64 48 37 20 40 61 63 64 66 63 57 53
40 17 21 34 30 28 31 45 48 56 60 61 58 59 55 41 37 42 60 73 74 72 71 74 69 66 64 68 73 71 65 50 43 31 16 54 61 63 62 63 61 56 52
262 302 9 20 20 20 33 42 36 40 44 48 49 49 48 42 34 40 44 59 60 61 59 66 64 60 58 51 61 64 52 45 39 27 40 56 58 58 55 57 54 52 53
229 250 191 329 16 34 32 36 34 35 39 41 44 50 50 46 41 41 37 36 42 49 48 56 54 49 53 56 56 55 52 48 35 22 35 52 54 53 52 52 51 52 52
186 233 218 150 118 37 56 42 43 49 53 48 40 56 60 53 51 47 41 37 43 47 50 55 62 57 59 61 63 61 56 49 38 24 30 44 47 49 50 50 54 53 55
191 219 206 166 170 147 101 60 76 62 76 71 59 64 84 82 69 64 52 47 49 54 58 67 70 69 67 64 64 64 56 47 40 34 20 37 42 41 44 50 53 54 55
198 199 181 176 178 146 131 131 107 87 94 83 73 84 102 99 91 83 69 62 58 61 66 76 81 79 72 71 65 60 54 44 38 32 25 27 35 39 43 47 50 50 50
196 187 173 178 151 138 134 137 101 88 93 94 82 85 102 107 105 101 89 75 71 79 84 81 76 73 75 72 64 56 50 44 41 38 32 28 25 34 39 43 45 45 45
171 169 177 161 138 132 120 108 92 83 90 92 92 90 98 111 116 108 100 90 90 89 87 89 81 79 72 71 63 49 43 41 40 40 37 33 31 29 28 37 39 39 39
165 158 156 141 133 128 110 91 79 73 69 60 75 86 94 104 111 107 103 103 101 94 90 100 82 88 90 81 74 59 44 40 32 37 37 35 35 36 31 31 34 34 34
144 139 140 126 123 118 97 82 65 55 45 46 61 78 96 99 104 104 100 100 102 100 89 93 92 76 85 87 80 65 48 42 38 33 30 31 32 37 35 31 26 21 27
125 131 142 140 140 127 110 104 92 71 36 41 48 62 83 103 113 111 108 101 102 109 117 120 109 93 81 93 83 60 38 40 44 33 29 33 32 30 32 31 25 21 11
153 156 153 154 157 156 135 125 120 114 91 61 28 45 59 102 123 130 129 127 117 118 118 124 122 115 107 91 108 96 44 15 17 27 26 36 29 23 29 30 25 24 13
169 177 175 171 165 158 135 111 86 62 42 37 26 6 359 93 120 127 135 132 132 136 147 152 148 144 148 87 85 129 131 169 347 1 21 30 25 24 14 14 23 17 13
186 176 168 165 159 149 139 136 136 136 144 192 205 324 8 59 101 125 137 136 142 144 155 169 159 151 141 140 75 58 110 145 136 45 355 6 20 22 11 14 11 9 9
172 167 165 159 155 150 148 147 136 133 148 131 77 60 29 32 72 114 132 136 143 151 162 164 153 153 146 149 148 127 90 73 95 129 81 341 359 359 3 5 6 4 6
155 157 156 156 162 158 156 153 153 156 154 139 131 110 41 24 39 81 124 132 142 146 157 166 161 156 154 144 143 146 151 148 155 140 147 181 331 324 349 6 11 0 4